Flag for U.S.A. Weather past 2 weeks in Germantown, Maryland, U.S.A.

Now
54 °F

Sunny.


Feels Like: 52 °F
Forecast: 52 / 65 °F
Wind: 6 mph from Northeast

Location: Frederick Municipal Airport

Current Time: Apr 19, 2015 at 9:10:44 AM

Latest Report: Apr 19, 2015 at 7:45 AM


Visibility: 10 mi

Pressure: 30.19 "Hg

Humidity: 47%

Dew point: 34 °F

Location of GermantownLocation

Historic Weather in Germantown — Graph

°F

Germantown temperature yesterday

Maximum temperature yesterday: 82 °F (at 3:50 PM)
Minimum temperature yesterday: 45 °F (at 6:25 AM)
Average temperature yesterday: 60 °F

Past Weeks' High & Low Weather Summary

 TemperatureHumidityPressure
High82 °F (Apr 18, 3:50 PM)100% (Apr 15, 6:50 AM)30.46 "Hg (Apr 15, 6:50 AM)
Low32 °F (Apr 12, 5:05 AM)5% (Apr 6, 3:55 PM)29.82 "Hg (Apr 10, 4:47 PM)
Average54 °F58%30.18 "Hg
* Reported Apr 4 7:53 AM — Apr 19 7:45 AM, Germantown, Weather by CustomWeather, © 2015

Note: Actual official high and low records may vary slightly from our data, if they occured in-between our weather recording intervals... More about our weather records

Advertising

Germantown weather history for previous 24 hours

 ConditionsComfort  
Time TempWeatherWind HumidityBarometerVisibility
7:45 AM
Sun, Apr 19
54 °FSunny.6 mph47%30.19 "Hg10 mi
6:25 AM54 °FClear.7 mph47%30.16 "Hg10 mi
6:05 AM54 °FClear.7 mph47%30.15 "Hg10 mi
5:45 AM54 °FClear.7 mph47%30.14 "Hg10 mi
5:25 AM54 °FClear.7 mph51%30.13 "Hg10 mi
5:05 AM54 °FClear.7 mph51%30.13 "Hg10 mi
4:45 AM55 °FClear.6 mph51%30.13 "Hg10 mi
4:25 AM55 °FClear.6 mph47%30.12 "Hg10 mi
4:05 AM57 °FClear.8 mph44%30.11 "Hg10 mi
3:45 AM59 °FClear.6 mph45%30.11 "Hg10 mi
3:25 AM59 °FClear.6 mph45%30.10 "Hg10 mi
3:05 AM59 °FClear.9 mph48%30.09 "Hg10 mi
2:45 AM61 °FClear.10 mph45%30.09 "Hg10 mi
2:25 AM61 °FClear.7 mph48%30.10 "Hg10 mi
2:05 AM59 °FClear.8 mph55%30.09 "Hg10 mi
1:45 AM61 °FClear.7 mph52%30.09 "Hg10 mi
1:25 AM63 °FClear.8 mph49%30.08 "Hg10 mi
1:05 AM63 °FClear.10 mph52%30.07 "Hg10 mi
12:45 AM61 °FClear.5 mph59%30.07 "Hg10 mi
12:25 AM59 °FClear.9 mph72%30.05 "Hg10 mi
12:05 AM61 °FClear.No wind59%30.04 "Hg10 mi
11:25 PM
Sat, Apr 18
59 °FClear.3 mph72%30.04 "Hg10 mi
11:05 PM61 °FClear.5 mph59%30.04 "Hg10 mi
10:45 PM61 °FClear.No wind63%30.03 "Hg10 mi
10:25 PM61 °FClear.No wind68%30.02 "Hg10 mi
10:05 PM61 °FClear.No wind68%30.02 "Hg10 mi
9:45 PM61 °FClear.No wind63%30.03 "Hg10 mi
9:25 PM63 °FClear.No wind56%30.02 "Hg10 mi
8:45 PM64 °FSunny.No wind49%30.00 "Hg10 mi
7:50 PM73 °FSunny.No wind27%29.98 "Hg10 mi
6:50 PM75 °FSunny.3 mph27%29.97 "Hg10 mi
5:55 PM81 °FSunny.No wind17%29.99 "Hg10 mi
4:45 PM81 °FSunny.10 mph20%29.98 "Hg10 mi
3:50 PM82 °FSunny.5 mph15%29.97 "Hg10 mi
2:50 PM81 °FSunny.No wind17%29.99 "Hg10 mi
1:50 PM79 °FSunny.No wind21%30.01 "Hg10 mi
11:47 AM75 °FSunny.No wind24%30.06 "Hg10 mi
10:47 AM73 °FSunny.No wind33%30.07 "Hg10 mi
9:47 AM70 °FSunny.No wind46%30.07 "Hg10 mi
Weather by CustomWeather, © 2015

See weather overviewHow to use our weather pages